Cumberland, WV

2:54 PM EDT on May 28, 2017 (GMT -0400)
Greater Cumberland Regional

Weather History for KCBE - August, 2013

Change the Weather History Date:

Wednesday, August 28, 2013

  Actual Average (KMRB) Record (KMRB)
Temperature  
Mean Temperature 71 °F -  
Max Temperature 73 °F 85 °F 99 °F (1948)
Min Temperature 69 °F 62 °F 45 °F (1968)
Cooling Degree Days 6    
Growing Degree Days 21 (Base 50)    
Moisture  
Dew Point 69 °F    
Average Humidity 94    
Maximum Humidity 100    
Minimum Humidity 78    
Precipitation  
Precipitation 0.00 in - - ()
Sea Level Pressure  
Sea Level Pressure 29.94 in    
Wind  
Wind Speed 1 mph (SE)    
Max Wind Speed 7 mph    
Max Gust Speed -    
Visibility 5 miles    
Events      
Averages and records for this station are not official NWS values.
T = Trace of Precipitation, MM = Missing Value Source: NWS Daily Summary

Daily Weather History Graph

Daily Weather History Graph

Search for Another Location

Airport or City:

Trip Planner

Search our weather history database for the weather conditions in past years. The results will help you decide how hot, cold, wet, or windy it might be!

Date:

Astronomy

Aug. 28, 2013 Rise Set
Actual Time 6:39 AM EDT 7:51 PM EDT
Civil Twilight 6:11 AM EDT 8:19 PM EDT
Nautical Twilight 5:38 AM EDT 8:52 PM EDT
Astronomical Twilight 5:03 AM EDT 9:27 PM EDT
Moon No Moon Rise 2:27 PM EDT
Length of Visible Light 14h 07m
Length of Day
13h 12m
Waning Gibbous, 47% of the Moon is Illuminated
Aug 28
Waning Gibbous
Sep 5
New
Sep 12
First Quarter
Sep 19
Full
Sep 26
Last Quarter

Hourly Weather History & Observations

Time (EDT) Temp. Dew Point Humidity Pressure Visibility Wind Dir Wind Speed Gust Speed Precip Events Conditions
12:09 AM 73.4 °F 66.2 °F 78% 30.01 in 10.0 mi Calm Calm - N/A   Scattered Clouds
12:29 AM 73.4 °F 68.0 °F 83% 30.00 in 10.0 mi NE 3.5 mph - N/A   Scattered Clouds
12:49 AM 73.4 °F 68.0 °F 83% 30.00 in 10.0 mi North 3.5 mph - N/A   Scattered Clouds
1:09 AM 71.6 °F 68.0 °F 88% 29.99 in 10.0 mi Calm Calm - N/A   Mostly Cloudy
1:29 AM 71.6 °F 68.0 °F 88% 29.99 in 10.0 mi Calm Calm - N/A   Scattered Clouds
1:49 AM 71.6 °F 68.0 °F 88% 29.98 in 10.0 mi Calm Calm - N/A   Scattered Clouds
2:09 AM 71.6 °F 68.0 °F 88% 29.97 in 10.0 mi Calm Calm - N/A   Scattered Clouds
2:29 AM 71.6 °F 68.0 °F 88% 29.96 in 10.0 mi Calm Calm - N/A   Clear
2:49 AM 71.6 °F 68.0 °F 88% 29.96 in 10.0 mi Calm Calm - N/A   Mostly Cloudy
3:09 AM 71.6 °F 68.0 °F 88% 29.96 in 10.0 mi Calm Calm - N/A   Scattered Clouds
3:29 AM 71.6 °F 68.0 °F 88% 29.96 in 7.0 mi Calm Calm - N/A   Scattered Clouds
3:49 AM 71.6 °F 68.0 °F 88% 29.96 in 5.0 mi Calm Calm - N/A   Mostly Cloudy
4:09 AM 69.8 °F 68.0 °F 94% 29.97 in 4.0 mi Calm Calm - N/A   Overcast
4:29 AM 69.8 °F 68.0 °F 94% 29.96 in 3.0 mi Calm Calm - N/A   Overcast
4:49 AM 69.8 °F 68.0 °F 94% 29.95 in 3.0 mi Calm Calm - N/A   Overcast
5:09 AM 69.8 °F 68.0 °F 94% 29.95 in 2.0 mi NNW 3.5 mph - N/A   Unknown
5:29 AM 69.8 °F 69.8 °F 100% 29.95 in 1.5 mi Calm Calm - N/A   Overcast
5:49 AM 69.8 °F 69.8 °F 100% 29.96 in 1.8 mi Calm Calm - N/A   Overcast
6:09 AM 69.8 °F 69.8 °F 100% 29.97 in 1.8 mi Calm Calm - N/A   Overcast
6:29 AM 69.8 °F 69.8 °F 100% 29.98 in 1.0 mi Calm Calm - N/A   Overcast
6:49 AM 69.8 °F 69.8 °F 100% 29.98 in 2.0 mi Calm Calm - N/A   Overcast
7:09 AM 69.8 °F 69.8 °F 100% 29.98 in 2.5 mi Calm Calm - N/A   Overcast
7:29 AM 69.8 °F 69.8 °F 100% 29.99 in 1.0 mi Calm Calm - N/A   Overcast
7:49 AM 69.8 °F 69.8 °F 100% 30.00 in 0.8 mi SSE 3.5 mph - N/A   Overcast
8:09 AM 69.8 °F 69.8 °F 100% 29.99 in 0.8 mi SSE 5.8 mph - N/A   Overcast
8:30 AM 69.8 °F 69.8 °F 100% 29.99 in 1.2 mi SSE 3.5 mph - N/A   Overcast
8:50 AM 69.8 °F 69.8 °F 100% 29.98 in 1.5 mi SSE 5.8 mph - N/A   Overcast
9:10 AM 69.8 °F 69.8 °F 100% 29.98 in 2.0 mi SSE 6.9 mph - N/A   Overcast
9:30 AM 69.8 °F 69.8 °F 100% 29.99 in 2.5 mi South 5.8 mph - N/A   Overcast
9:50 AM 69.8 °F 69.8 °F 100% 29.98 in 2.5 mi Calm Calm - N/A   Overcast
10:10 AM 69.8 °F 69.8 °F 100% 29.98 in 3.0 mi SE 4.6 mph - N/A   Overcast
10:30 AM 69.8 °F 69.8 °F 100% 29.97 in 4.0 mi SSE 5.8 mph - N/A   Overcast
10:50 AM 69.8 °F 69.8 °F 100% 29.96 in 3.0 mi SSE 5.8 mph - N/A   Overcast
11:10 AM 69.8 °F 69.8 °F 100% 29.96 in 3.0 mi SSE 4.6 mph - N/A   Overcast
11:30 AM 69.8 °F 69.8 °F 100% 29.96 in 5.0 mi SE 3.5 mph - N/A   Overcast
11:50 AM 71.6 °F 69.8 °F 94% 29.96 in 3.0 mi SSE 3.5 mph - N/A   Overcast
12:10 PM 71.6 °F 69.8 °F 94% 29.94 in 4.0 mi SSE 4.6 mph - N/A   Mostly Cloudy
12:30 PM 71.6 °F 69.8 °F 94% 29.93 in 5.0 mi SSE 5.8 mph - N/A   Scattered Clouds
12:50 PM 71.6 °F 69.8 °F 94% 29.94 in 5.0 mi SE 3.5 mph - N/A   Scattered Clouds
1:10 PM 71.6 °F 69.8 °F 94% 29.93 in 7.0 mi Calm Calm - N/A   Mostly Cloudy
1:30 PM 71.6 °F 69.8 °F 94% 29.92 in 7.0 mi SSE 4.6 mph - N/A   Mostly Cloudy
1:50 PM 71.6 °F 69.8 °F 94% 29.92 in 7.0 mi Calm Calm - N/A   Mostly Cloudy
2:10 PM 73.4 °F 69.8 °F 88% 29.92 in 10.0 mi SSE 4.6 mph - N/A   Mostly Cloudy
2:30 PM 73.4 °F 69.8 °F 88% 29.92 in 10.0 mi Calm Calm - N/A   Overcast
2:50 PM 73.4 °F 69.8 °F 88% 29.90 in 10.0 mi Calm Calm - N/A   Overcast
3:10 PM 73.4 °F 69.8 °F 88% 29.90 in 10.0 mi Calm Calm - N/A   Overcast
3:30 PM 71.6 °F 69.8 °F 94% 29.89 in 7.0 mi Calm Calm - N/A   Overcast
3:50 PM 71.6 °F 69.8 °F 94% 29.89 in 7.0 mi Calm Calm - N/A   Mostly Cloudy
4:10 PM 71.6 °F 69.8 °F 94% 29.88 in 5.0 mi Calm Calm - N/A   Mostly Cloudy
4:30 PM 71.6 °F 69.8 °F 94% 29.88 in 4.0 mi Calm Calm - N/A   Mostly Cloudy
4:50 PM 71.6 °F 69.8 °F 94% 29.86 in 3.0 mi Calm Calm - N/A   Overcast
5:10 PM 71.6 °F 71.6 °F 100% 29.87 in 4.0 mi Calm Calm - N/A   Mostly Cloudy
5:30 PM 71.6 °F 71.6 °F 100% 29.88 in 5.0 mi NNE 4.6 mph - N/A   Overcast
5:51 PM 71.6 °F 71.6 °F 100% 29.86 in 7.0 mi Calm Calm - N/A   Overcast
6:11 PM 71.6 °F 69.8 °F 94% 29.88 in 5.0 mi North 5.8 mph - N/A   Mostly Cloudy
6:31 PM 71.6 °F 69.8 °F 94% 29.89 in 5.0 mi Calm Calm - N/A   Mostly Cloudy
6:51 PM 73.4 °F 71.6 °F 94% 29.88 in 5.0 mi Calm Calm - N/A   Mostly Cloudy
7:11 PM 71.6 °F 69.8 °F 94% 29.88 in 5.0 mi Calm Calm - N/A   Scattered Clouds
7:31 PM 71.6 °F 69.8 °F 94% 29.88 in 4.0 mi Calm Calm - N/A   Scattered Clouds
7:51 PM 71.6 °F 69.8 °F 94% 29.90 in 3.0 mi Calm Calm - N/A   Overcast
8:11 PM 71.6 °F 69.8 °F 94% 29.90 in 3.0 mi Calm Calm - N/A   Overcast
8:31 PM 71.6 °F 69.8 °F 94% 29.91 in 2.5 mi Calm Calm - N/A   Unknown
8:51 PM 71.6 °F 69.8 °F 94% 29.92 in 2.5 mi Calm Calm - N/A   Overcast
9:11 PM 71.6 °F 69.8 °F 94% 29.92 in 3.0 mi Calm Calm - N/A   Overcast
9:31 PM 71.6 °F 69.8 °F 94% 29.92 in 3.0 mi Calm Calm - N/A   Overcast
9:51 PM 71.6 °F 69.8 °F 94% 29.92 in 2.5 mi Calm Calm - N/A   Overcast
10:11 PM 71.6 °F 69.8 °F 94% 29.92 in 2.0 mi Calm Calm - N/A   Overcast
10:31 PM 71.6 °F 69.8 °F 94% 29.92 in 0.8 mi Calm Calm - N/A   Overcast
10:51 PM 71.6 °F 69.8 °F 94% 29.94 in 1.0 mi NE 3.5 mph - N/A   Overcast
11:11 PM 71.6 °F 69.8 °F 94% 29.94 in 0.5 mi Calm Calm - N/A   Overcast
11:31 PM 71.6 °F 69.8 °F 94% 29.94 in 0.5 mi Calm Calm - N/A   Overcast
11:51 PM 69.8 °F 69.8 °F 100% 29.94 in 0.5 mi Calm Calm - N/A   Overcast